1506153601.15,5452,14.06,73466.3,-1.01,-1.13,-1.13,0,*66
1506153602.34,5453,14.06,73468.0,-1.03,-1.33,-1.33,0,*65
1506153603.53,5454,14.06,73464.8,-1.03,-1.51,-1.51,0,*62
1506153604.78,5455,14.06,73468.0,-1.03,-1.39,-1.43,0,*6E
1506153606.02,5456,14.06,73468.0,-1.01,-1.51,-1.47,0,*65
1506153607.2,5457,14.06,73464.5,-1.03,-1.55,-1.51,0,*65
1506153608.39,5458,14.06,73460.8,-1.03,-1.55,-1.55,0,*6E
1506153609.61,5459,14.06,73458.3,-1.01,-1.63,-1.63,0,*6D
1506153610.82,5460,14.06,73460.5,-1.01,-1.59,-1.67,0,*6A
1506153612.05,5461,14.06,73458.0,-1.03,-1.39,-1.51,0,*6A
1506153613.24,5462,14.06,73456.0,-1.03,-1.79,-1.79,0,*67
1506153614.43,5463,14.06,73452.8,-1.03,-1.75,-1.75,0,*66
1506153615.65,5464,14.06,73460.5,-1.01,-1.75,-1.75,0,*63
1506153616.83,5465,14.06,73458.3,-1.03,-1.67,-1.55,0,*61
1506153618.02,5466,14.06,73460.8,-1.03,-1.79,-1.79,0,*63
1506153619.22,5467,14.06,73464.5,-1.03,-1.79,-1.79,0,*62
1506153620.46,5468,14.06,73460.8,-1.03,-1.91,-1.91,0,*6D
1506153621.71,5469,14.06,73462.5,-1.05,-1.95,-1.95,0,*6A
1506153622.96,5470,14.06,73450.5,-1.05,-1.83,-1.79,0,*67
1506153624.17,5471,14.06,73450.0,-1.05,-1.33,-1.33,0,*63
1506153625.39,5472,14.06,73456.8,-1.05,-1.63,-1.63,0,*60
1506153626.58,5473,14.06,73458.3,-1.03,-1.55,-1.63,0,*62
1506153627.76,5474,14.06,73454.3,-1.03,-1.55,-1.55,0,*60
1506153628.95,5475,14.06,73458.5,-1.03,-1.63,-1.63,0,*61
1506153630.17,5476,14.06,73454.5,-1.01,-1.63,-1.63,0,*60
1506153631.36,5477,14.06,73458.0,-1.03,-1.79,-1.79,0,*63
1506153632.55,5478,14.06,73460.5,-1.03,-1.79,-1.79,0,*6C
1506153633.74,5479,14.06,73466.0,-1.03,-1.79,-1.75,0,*61
1506153634.96,5480,14.06,73460.3,-1.05,-1.75,-1.79,0,*61
1506153636.17,5481,14.06,73458.5,-1.05,-1.79,-1.79,0,*6C
1506153637.39,5482,14.06,73458.3,-1.05,-1.79,-1.79,0,*6F
1506153638.6,5483,14.06,73454.5,-1.05,-1.75,-1.75,0,*6E
1506153639.82,5484,14.06,73458.5,-1.05,-1.79,-1.79,0,*69
1506153641.03,5485,14.06,73458.3,-1.05,-1.63,-1.63,0,*68
1506153642.24,5486,14.13,73454.0,-1.05,-1.55,-1.63,0,*6E
1506153643.52,5487,14.06,73450.5,-1.05,-1.39,-1.39,0,*6A
1506153644.76,5488,14.06,73448.3,-1.07,-1.35,-1.35,0,*67
1506153646.01,5489,14.06,73456.8,-1.07,-1.43,-1.47,0,*62
1506153647.22,5490,14.06,73458.5,-1.05,-1.51,-1.51,0,*6C
1506153648.45,5491,14.06,73454.5,-1.05,-1.17,-1.21,0,*68
1506153649.66,5492,14.06,73454.3,-1.05,-1.29,-1.29,0,*6E
1506153650.88,5493,14.06,73458.0,-1.05,-1.33,-1.33,0,*6F
1506153652.07,5494,14.06,73458.8,-1.03,-1.25,-1.17,0,*6F
1506153653.29,5495,14.06,73452.0,-1.03,-1.39,-1.33,0,*65
1506153654.54,5496,14.06,73466.3,-1.03,-1.43,-1.43,0,*6C
1506153655.79,5497,14.06,73460.0,-1.01,-0.89,-0.97,0,*60
1506153657.01,5498,14.06,73458.0,-1.01,-1.17,-1.17,0,*60
1506153658.23,5499,14.06,73460.8,-1.03,-1.43,-1.51,0,*60
1506153659.44,5500,14.06,73458.0,-1.01,-1.63,-1.59,0,*69
1506153660.72,5501,14.06,73462.3,-1.01,-1.39,-1.35,0,*6D
1506153661.93,5502,14.06,73454.5,-1.01,-1.25,-1.29,0,*6E
1506153663.2,5503,14.06,73456.8,-1.01,-1.01,-0.89,0,*52
1506153664.41,5504,14.06,73456.5,-1.01,-1.51,-1.51,0,*64
1506153665.62,5505,14.06,73458.3,-1.01,-1.51,-1.51,0,*65
1506153666.89,5506,14.06,73450.5,-1.01,-1.47,-1.39,0,*6F
1506153668.11,5507,14.06,73454.5,-1.01,-1.51,-1.51,0,*67
1506153669.38,5508,14.06,73452.3,-1.01,-1.35,-1.35,0,*68
1506153670.61,5509,14.06,73446.5,-1.01,-1.35,-1.25,0,*68
1506153671.81,5510,14.06,73456.8,-1.03,-1.33,-1.29,0,*68
1506153673.04,5511,14.06,73458.3,-0.99,-1.35,-1.35,0,*50
1506153674.26,5512,14.06,73454.5,-0.99,-1.13,-1.17,0,*57
1506153675.44,5513,14.06,73456.3,-0.99,-1.25,-1.17,0,*53
1506153676.65,5514,14.06,73450.0,-0.99,-1.51,-1.47,0,*52
1506153677.83,5515,14.06,73460.3,-0.99,-1.59,-1.63,0,*5D
1506153679.02,5516,14.06,73458.0,-0.99,-1.71,-1.63,0,*54
1506153680.2,5517,14.06,73460.3,-0.99,-1.59,-1.59,0,*56
1506153681.38,5518,14.06,73460.8,-0.99,-1.59,-1.59,0,*59
1506153682.59,5519,14.06,73460.5,-1.01,-1.51,-1.51,0,*68
1506153683.84,5520,14.06,73462.3,-1.01,-1.47,-1.51,0,*65
1506153685.11,5521,14.06,73456.0,-1.01,-1.35,-1.39,0,*6F
1506153686.32,5522,14.06,73458.8,-1.01,-1.51,-1.51,0,*60
1506153687.56,5523,14.06,73464.5,-0.99,-1.39,-1.39,0,*51
1506153688.75,5524,14.06,73462.8,-0.99,-1.25,-1.29,0,*5A
1506153689.93,5525,14.06,73464.8,-0.99,-1.59,-1.63,0,*5E
1506153691.11,5526,14.06,73464.5,-0.99,-1.63,-1.59,0,*5D
1506153692.29,5527,14.06,73470.0,-0.99,-1.59,-1.59,0,*55
1506153693.47,5528,14.06,73464.3,-0.99,-1.59,-1.51,0,*52
1506153694.71,5529,14.06,73470.5,-0.99,-1.39,-1.35,0,*57
1506153695.89,5530,14.06,73468.3,-0.99,-1.51,-1.51,0,*53
1506153697.14,5531,14.06,73474.0,-0.99,-1.39,-1.39,0,*52
1506153698.38,5532,14.06,73474.3,-0.99,-1.47,-1.47,0,*51
1506153699.65,5533,14.06,73470.0,-1.01,-1.47,-1.47,0,*60
1506153700.89,5534,14.06,73474.0,-1.01,-1.51,-1.47,0,*60
1506153702.12,5535,14.06,73464.3,-1.01,-1.51,-1.47,0,*61
1506153703.3,5536,14.06,73466.5,-0.99,-1.59,-1.59,0,*55
1506153704.48,5537,14.06,73468.3,-0.99,-1.59,-1.51,0,*5C
1506153705.69,5538,14.06,73468.5,-0.99,-1.51,-1.47,0,*5C
1506153706.9,5539,14.06,73464.5,-0.99,-1.51,-1.47,0,*5D
1506153708.11,5540,14.06,73464.0,-0.97,-1.55,-1.55,0,*5A
1506153709.31,5541,14.06,73476.3,-0.97,-1.59,-1.59,0,*5B
1506153710.5,5542,14.06,73480.3,-0.99,-1.71,-1.63,0,*55
1506153711.68,5543,14.06,73470.0,-0.99,-1.75,-1.75,0,*57
1506153712.87,5544,14.06,73468.0,-0.99,-1.75,-1.71,0,*54
1506153714.05,5545,14.06,73470.0,-0.99,-1.59,-1.59,0,*51
1506153715.27,5546,14.06,73468.5,-0.99,-1.17,-1.05,0,*51
1506153716.47,5547,14.06,73474.5,-0.99,-1.25,-1.13,0,*56
1506153717.71,5548,14.06,73474.0,-0.99,-1.47,-1.39,0,*55
1506153718.98,5549,14.06,73490.0,-0.97,-1.47,-1.47,0,*53
1506153720.21,5550,14.06,73486.0,-0.97,-1.35,-1.25,0,*5A
1506153721.44,5551,14.06,73482.5,-0.97,-1.21,-1.13,0,*5B
1506153722.65,5552,14.06,73480.3,-0.97,-1.25,-1.21,0,*5D
1506153723.84,5553,14.06,73478.5,-0.99,-1.29,-1.25,0,*5A
1506153725.1,5554,14.06,73486.3,-0.97,-1.35,-1.35,0,*5F
1506153726.29,5555,14.06,73490.3,-0.99,-1.29,-1.29,0,*50
1506153727.48,5556,14.06,73486.8,-0.97,-0.61,-0.73,0,*5E
1506153728.73,5557,14.06,73484.8,-0.97,-1.01,-0.93,0,*66
1506153729.99,5558,14.06,73484.3,-0.97,-1.09,-1.09,0,*53
1506153731.25,5559,14.06,73488.5,-0.97,-1.13,-1.09,0,*59
1506153732.46,5560,14.06,73486.3,-0.95,-1.21,-1.09,0,*50
1506153733.67,5561,14.06,73488.0,-0.95,-1.17,-1.09,0,*54
1506153734.9,5562,14.06,73484.8,-0.95,-1.09,-1.09,0,*58
1506153736.13,5563,14.06,73486.0,-0.95,-1.09,-1.09,0,*59
1506153737.34,5564,14.06,73484.0,-0.95,-1.17,-1.09,0,*51
1506153738.59,5565,14.06,73480.8,-0.93,-0.93,-0.89,0,*52
1506153739.79,5566,14.06,73482.0,-0.93,-0.81,-0.81,0,*5A
1506153741.01,5567,14.06,73482.3,-0.95,-0.89,-0.89,0,*5D
1506153742.28,5568,14.06,73480.3,-0.93,-1.05,-1.05,0,*54
1506153743.53,5569,14.06,73480.3,-0.93,-1.05,-0.97,0,*6F
1506153744.76,5570,14.06,73480.0,-0.91,-1.01,-0.89,0,*6E
1506153745.97,5571,14.06,73476.3,-0.91,-0.85,-0.77,0,*53
1506153747.18,5572,14.06,73478.5,-0.91,-0.93,-0.93,0,*5D
1506153748.4,5573,14.06,73484.3,-0.91,-0.93,-0.93,0,*5C
1506153749.62,5574,14.06,73482.5,-0.91,-0.89,-0.93,0,*50
1506153750.83,5575,14.06,73480.8,-0.91,-0.85,-0.77,0,*57
1506153752.02,5576,14.06,73478.5,-0.91,-0.77,-0.85,0,*54
1506153753.26,5577,14.06,73480.3,-0.89,-0.93,-0.93,0,*51
1506153754.5,5578,14.06,73482.0,-0.89,-0.93,-0.93,0,*5E
1506153755.74,5579,14.06,73480.8,-0.89,-0.85,-0.89,0,*53
1506153756.99,5580,14.06,73484.0,-0.89,-0.93,-0.89,0,*52
1506153758.24,5581,14.06,73484.0,-0.85,-1.01,-1.01,0,*54
1506153759.48,5582,14.06,73494.5,-0.85,-1.09,-0.97,0,*61
1506153760.68,5583,14.06,73486.5,-0.85,-0.45,-0.45,0,*56
1506153761.88,5584,14.06,73486.8,-0.85,-0.81,-0.73,0,*5C
1506153763.13,5585,14.06,73486.8,-0.85,-0.89,-0.89,0,*50
1506153764.38,5586,14.06,73498.8,-0.83,-0.85,-0.85,0,*55
1506153765.58,5587,14.06,73498.5,-0.83,-0.77,-0.77,0,*54
1506153766.83,5588,14.06,73496.5,-0.85,-0.89,-0.89,0,*5D
1506153768.07,5589,14.06,73502.5,-0.85,-0.97,-0.89,0,*53
1506153769.32,5590,14.06,73488.3,-0.85,-0.97,-1.01,0,*6A
1506153770.53,5591,14.06,73480.5,-0.83,-0.69,-0.69,0,*53
1506153771.71,5592,14.06,73480.0,-0.81,-0.81,-0.81,0,*52
1506153772.96,5593,14.06,73482.5,-0.83,-0.93,-0.85,0,*56
1506153774.21,5594,14.06,73480.0,-0.85,-1.01,-1.01,0,*50
1506153775.47,5595,14.06,73474.5,-0.83,-0.97,-0.97,0,*57
1506153776.72,5596,14.06,73476.8,-0.83,-1.09,-0.97,0,*62
1506153777.97,5597,14.06,73476.5,-0.85,-1.13,-1.09,0,*58
1506153779.24,5598,14.06,73476.0,-0.83,-1.05,-1.05,0,*5A
1506153780.5,5599,14.06,73478.0,-0.83,-1.05,-0.97,0,*61
1506153781.76,5600,14.06,73472.3,-0.83,-0.97,-0.97,0,*58
1506153782.98,5601,14.06,73474.0,-0.81,-0.97,-0.93,0,*5F
1506153784.23,5602,14.06,73480.5,-0.83,-0.93,-0.93,0,*5A
1506153785.45,5603,14.06,73482.0,-0.81,-0.93,-0.97,0,*5D
1506153786.69,5604,14.06,73488.0,-0.81,-0.97,-1.05,0,*64
1506153787.92,5605,14.06,73488.3,-0.81,-1.09,-1.05,0,*53
1506153789.16,5606,14.06,73488.8,-0.81,-1.05,-0.97,0,*66
1506153790.39,5607,14.06,73492.3,-0.83,-0.85,-0.77,0,*52
1506153791.64,5608,14.06,73494.8,-0.83,-0.85,-0.93,0,*57
1506153792.89,5609,14.06,73482.8,-0.83,-0.97,-0.97,0,*51
1506153794.14,5610,14.06,73484.5,-0.83,-0.97,-0.97,0,*59
1506153795.4,5611,14.06,73486.8,-0.83,-0.97,-0.93,0,*5C
1506153796.57,5612,14.06,73486.3,-0.81,-0.65,-0.61,0,*5D
1506153797.75,5613,14.06,73494.3,-0.81,-0.69,-0.65,0,*54
1506153798.97,5614,14.06,73494.5,-0.81,-0.85,-0.85,0,*5F
1506153800.21,5615,14.06,73486.3,-0.81,-0.97,-1.05,0,*64
1506153801.43,5616,14.06,73482.0,-0.81,-0.93,-0.85,0,*5A
1506153802.64,5617,14.06,73482.3,-0.81,-1.17,-1.09,0,*53
1506153803.88,5618,14.06,73482.8,-0.79,-1.17,-1.13,0,*50
1506153805.07,5619,14.06,73494.0,-0.81,-1.21,-1.17,0,*57
1506153806.26,5620,14.06,73500.0,-0.81,-1.21,-1.17,0,*5D
1506153807.46,5621,14.06,73494.8,-0.79,-0.65,-0.53,0,*5B
1506153808.64,5622,14.06,73480.0,-0.81,-0.69,-0.69,0,*5A
1506153809.87,5623,14.06,73492.5,-0.79,-0.89,-0.77,0,*5D
1506153811.07,5624,14.06,73484.8,-0.79,-0.77,-0.65,0,*58
1506153812.3,5625,14.06,73470.5,-0.77,-1.09,-1.09,0,*54
1506153813.56,5626,14.06,73484.5,-0.79,-1.39,-1.35,0,*55
1506153814.83,5627,14.06,73486.8,-0.79,-1.47,-1.47,0,*58
1506153816.07,5628,14.06,73506.5,-0.81,-1.43,-1.43,0,*50
1506153817.3,5629,14.06,73494.0,-0.79,-1.25,-1.13,0,*53
1506153818.5,5630,14.06,73492.8,-0.79,-0.07,-0.15,0,*6D
1506153819.76,5631,14.06,73498.0,-0.79,-1.05,-1.01,0,*5B
1506153820.98,5632,14.06,73494.3,-0.79,-1.29,-1.29,0,*5C
1506153822.17,5633,14.06,73490.5,-0.81,-1.17,-1.17,0,*5A
1506153823.43,5634,14.06,73490.5,-0.79,-1.05,-1.01,0,*5E
1506153824.67,5635,14.06,73494.5,-0.81,-1.09,-1.05,0,*50
1506153825.88,5636,14.06,73496.5,-0.79,-0.81,-0.77,0,*51
1506153827.12,5637,14.06,73492.8,-0.79,-0.93,-0.93,0,*59
1506153828.38,5638,14.06,73490.5,-0.79,-1.13,-1.05,0,*51
1506153829.57,5639,14.06,73492.3,-0.81,-1.21,-1.17,0,*55
1506153830.79,5640,14.06,73496.0,-0.81,-1.17,-1.09,0,*51
1506153831.98,5641,14.06,73494.3,-0.81,-1.17,-1.17,0,*5F
1506153833.21,5642,14.06,73486.0,-0.81,-1.09,-1.09,0,*5C
1506153834.43,5643,14.06,73482.5,-0.81,-0.93,-0.93,0,*5D
1506153835.66,5644,14.06,73490.5,-0.81,-0.93,-1.05,0,*64
1506153836.86,5645,14.06,73488.8,-0.81,-1.21,-1.17,0,*5E
1506153838.04,5646,14.06,73482.0,-0.81,-1.33,-1.29,0,*53
1506153839.29,5647,14.06,73484.8,-0.81,-1.43,-1.39,0,*54
1506153840.53,5648,14.06,73500.5,-0.81,-1.43,-1.43,0,*56
1506153841.77,5649,14.06,73508.8,-0.81,-1.39,-1.39,0,*57
1506153842.99,5650,14.06,73490.3,-0.81,-1.39,-1.33,0,*55
1506153844.2,5651,14.06,73480.5,-0.81,-1.39,-1.33,0,*54
1506153845.41,5652,14.06,73480.0,-0.83,-1.55,-1.55,0,*5F
1506153846.62,5653,14.06,73478.5,-0.83,-1.67,-1.59,0,*53
1506153847.84,5654,14.06,73482.3,-0.83,-1.67,-1.67,0,*59
1506153849.05,5655,14.06,73496.5,-0.83,-1.67,-1.59,0,*55
1506153850.25,5656,14.06,73488.3,-0.85,-1.63,-1.63,0,*5D
1506153851.46,5657,14.06,73478.5,-0.85,-1.25,-1.21,0,*58
1506153852.7,5658,14.06,73478.8,-0.83,-1.33,-1.39,0,*5F
1506153853.92,5659,14.06,73484.3,-0.83,-1.29,-1.29,0,*54
1506153855.13,5660,14.06,73484.0,-0.85,-1.33,-1.33,0,*58
1506153856.35,5661,14.06,73486.3,-0.85,-1.35,-1.33,0,*5F
1506153857.56,5662,14.06,73492.0,-0.85,-1.25,-1.33,0,*5D
1506153858.78,5663,14.06,73490.8,-0.83,-1.17,-1.21,0,*58
1506153860.05,5664,14.06,73496.3,-0.83,-1.05,-1.05,0,*5A
1506153861.27,5665,14.06,73494.5,-0.83,-0.93,-0.81,0,*58
1506153862.52,5666,14.06,73494.5,-0.85,-0.97,-0.85,0,*5D
1506153863.77,5667,14.06,73500.8,-0.83,-0.97,-0.85,0,*5A
1506153865.02,5668,14.06,73502.5,-0.83,-0.85,-0.93,0,*51
1506153866.27,5669,14.06,73500.3,-0.83,-0.93,-0.97,0,*53
1506153867.5,5670,14.06,73502.0,-0.81,-0.97,-0.97,0,*5D
1506153868.72,5671,14.06,73496.0,-0.81,-0.97,-0.97,0,*5C
1506153869.94,5672,14.06,73502.5,-0.81,-0.93,-0.93,0,*5F
1506153871.17,5673,14.06,73502.5,-0.81,-0.89,-0.93,0,*55
1506153872.37,5674,14.06,73510.3,-0.79,-0.65,-0.77,0,*5D
1506153873.58,5675,14.06,73506.8,-0.79,-0.73,-0.73,0,*5F
1506153874.8,5676,14.06,73506.5,-0.81,-0.93,-0.97,0,*5F
1506153876.01,5677,14.06,73508.0,-0.79,-0.73,-0.77,0,*59
1506153877.18,5678,14.06,73510.0,-0.77,-0.53,-0.53,0,*5C
1506153878.36,5679,14.06,73504.0,-0.77,-0.81,-0.81,0,*5D
1506153879.61,5680,14.06,73504.5,-0.79,-0.89,-0.89,0,*55
1506153880.81,5681,14.06,73488.8,-0.77,-0.89,-0.81,0,*52
1506153882.03,5682,14.06,73488.0,-0.77,-0.89,-0.89,0,*59
1506153883.28,5683,14.06,73492.5,-0.79,-0.93,-0.89,0,*5D
1506153884.51,5684,14.06,73492.3,-0.77,-1.13,-1.05,0,*58
1506153885.75,5685,14.06,73498.8,-0.79,-1.13,-1.17,0,*54
1506153887.01,5686,14.06,73498.5,-0.79,-1.13,-1.13,0,*53
1506153888.25,5687,14.06,73494.0,-0.79,-0.93,-0.93,0,*52
1506153889.49,5688,14.06,73488.3,-0.79,-0.93,-0.93,0,*5D
1506153890.71,5689,14.06,73490.3,-0.77,-0.93,-0.93,0,*52
1506153891.98,5690,14.06,73496.3,-0.79,-1.05,-1.05,0,*54
1506153893.24,5691,14.06,73488.0,-0.79,-1.05,-1.01,0,*51
1506153894.46,5692,14.06,73500.8,-0.77,-0.89,-0.89,0,*58
1506153895.68,5693,14.06,73510.0,-0.77,-0.89,-0.89,0,*59
1506153896.89,5694,14.06,73520.0,-0.75,-0.77,-0.77,0,*5C
1506153898.07,5695,14.06,73520.0,-0.77,-1.25,-1.29,0,*53
1506153899.31,5696,14.06,73488.0,-0.77,-1.99,-2.03,0,*5C
1506153900.49,5697,14.06,73484.5,-0.77,-2.23,-2.27,0,*59
1506153901.75,5698,14.06,73484.0,-0.79,-1.91,-1.91,0,*5C
1506153902.93,5699,14.06,73488.0,-0.81,-1.59,-1.55,0,*56
1506153904.11,5700,14.06,73488.8,-0.81,-1.59,-1.55,0,*57
1506153905.3,5701,14.06,73488.8,-0.81,-1.79,-1.71,0,*52
1506153906.49,5702,14.06,73498.5,-0.81,-1.67,-1.67,0,*59
1506153907.67,5703,14.06,73480.5,-0.81,-1.67,-1.59,0,*55
1506153908.92,5704,14.06,73488.8,-0.85,-1.95,-1.95,0,*5B
1506153910.13,5705,14.06,73474.3,-0.83,-2.19,-2.31,0,*56
1506153911.37,5706,14.06,73482.8,-0.85,-2.43,-2.47,0,*5D
1506153912.57,5707,14.06,73476.0,-0.85,-2.23,-2.35,0,*5F
1506153913.83,5708,14.06,73480.5,-0.89,-2.03,-2.03,0,*5B
1506153915.06,5709,14.06,73484.3,-0.89,-1.79,-1.87,0,*5B
1506153916.24,5710,14.06,73484.3,-0.91,-1.51,-1.51,0,*5B
1506153917.44,5711,14.06,73482.8,-0.89,-1.51,-1.51,0,*53
1506153918.64,5712,14.06,73476.3,-0.89,-1.59,-1.63,0,*59
1506153919.83,5713,14.06,73490.0,-0.91,-1.63,-1.63,0,*58
1506153921.02,5714,14.06,73488.3,-0.89,-1.59,-1.59,0,*56
1506153922.23,5715,14.06,73478.0,-0.91,-1.51,-1.47,0,*59
1506153923.47,5716,14.06,73498.0,-0.91,-1.05,-1.05,0,*5D
1506153924.68,5717,14.06,73488.0,-0.89,-1.29,-1.29,0,*55
1506153925.92,5718,14.06,73488.5,-0.89,-1.29,-1.35,0,*57
1506153927.17,5719,14.06,73482.3,-0.89,-1.35,-1.35,0,*5B
1506153928.37,5720,14.06,73470.3,-0.89,-1.51,-1.51,0,*51
1506153929.58,5721,14.06,73484.5,-0.89,-1.63,-1.63,0,*50
1506153930.79,5722,14.06,73488.0,-0.91,-1.51,-1.47,0,*5D
1506153931.99,5723,14.06,73498.3,-0.89,-1.29,-1.25,0,*5E
1506153933.24,5724,14.06,73492.8,-0.85,-1.09,-1.09,0,*59
1506153934.44,5725,14.06,73494.3,-0.89,-1.25,-1.25,0,*54
1506153935.65,5726,14.06,73494.3,-0.89,-1.29,-1.29,0,*57
1506153936.86,5727,14.06,73500.5,-0.85,-1.25,-1.21,0,*5E
1506153938.06,5728,14.06,73506.3,-0.85,-0.73,-0.69,0,*5E
1506153939.28,5729,14.06,73498.0,-0.85,-0.73,-0.85,0,*5D
1506153940.53,5730,14.06,73498.3,-0.85,-1.13,-1.09,0,*57
1506153941.8,5731,14.06,73490.8,-0.83,-1.05,-1.05,0,*5B
1506153943.06,5732,14.06,73488.5,-0.85,-1.13,-1.13,0,*5E
1506153944.3,5733,14.06,73498.3,-0.83,-1.17,-1.09,0,*56
1506153945.52,5734,14.06,73492.3,-0.83,-1.17,-1.21,0,*5B
1506153946.78,5735,14.06,73480.5,-0.83,-1.09,-1.09,0,*5F
1506153948.05,5736,14.06,73490.3,-0.83,-1.05,-1.05,0,*5C
1506153949.28,5737,14.06,73494.5,-0.85,-1.21,-1.13,0,*5A
1506153950.49,5738,14.06,73502.0,-0.83,-0.81,-0.77,0,*5B
1506153951.69,5739,14.06,73492.8,-0.83,-0.69,-0.57,0,*5E
1506153952.94,5740,14.06,73488.8,-0.83,-1.05,-1.17,0,*5E
1506153954.16,5741,14.06,73490.0,-0.83,-1.17,-1.21,0,*59
1506153955.41,5742,14.06,73496.8,-0.85,-1.09,-1.01,0,*51
1506153956.61,5743,14.06,73502.8,-0.83,-0.65,-0.65,0,*5E
1506153957.79,5744,14.06,73504.3,-0.81,-0.81,-0.81,0,*5B
1506153959.0,5745,14.06,73496.0,-0.79,-0.77,-0.77,0,*5D
1506153960.22,5746,14.06,73496.5,-0.81,-0.85,-0.85,0,*59
1506153961.45,5747,14.06,73494.5,-0.79,-0.93,-0.81,0,*5C
1506153962.71,5748,14.06,73494.5,-0.79,-1.01,-1.01,0,*50
1506153963.9,5749,14.06,73496.0,-0.81,-1.21,-1.21,0,*56
1506153965.14,5750,14.06,73508.0,-0.79,-1.17,-1.13,0,*5D
1506153966.4,5751,14.06,73500.8,-0.79,-1.13,-1.01,0,*5B
1506153967.64,5752,14.06,73500.5,-0.79,-0.93,-0.89,0,*50
1506153968.88,5753,14.06,73500.0,-0.79,-0.93,-0.89,0,*51
1506153970.14,5754,14.06,73502.8,-0.79,-1.01,-1.01,0,*5D
1506153971.4,5755,14.06,73504.0,-0.79,-1.01,-1.01,0,*5C
1506153972.57,5756,14.06,73504.5,-0.77,-0.29,-0.29,0,*51
1506153973.75,5757,14.06,73516.3,-0.77,-0.49,-0.49,0,*50
1506153974.95,5758,14.06,73514.3,-0.75,-0.77,-0.77,0,*5D
1506153976.17,5759,14.06,73508.3,-0.75,-0.77,-0.85,0,*51
1506153977.42,5760,14.06,73512.8,-0.75,-0.89,-0.85,0,*5A
1506153978.62,5761,14.06,73504.3,-0.77,-0.89,-0.77,0,*54
1506153979.82,5762,14.06,73508.5,-0.75,-0.61,-0.57,0,*51
1506153981.02,5763,14.06,73510.3,-0.75,-0.77,-0.77,0,*55
1506153982.23,5764,14.06,73504.0,-0.75,-0.77,-0.77,0,*52
1506153983.43,5765,14.06,73514.3,-0.77,-0.89,-0.81,0,*59
1506153984.65,5766,14.06,73512.8,-0.73,-0.85,-0.85,0,*56
1506153985.91,5767,14.06,73504.3,-0.75,-1.01,-1.01,0,*51
1506153987.16,5768,14.06,73504.0,-0.75,-0.97,-0.97,0,*5E
1506153988.41,5769,14.06,73510.0,-0.75,-0.97,-0.97,0,*5F
1506153989.66,5770,14.06,73504.5,-0.75,-0.97,-0.89,0,*58
1506153990.87,5771,14.06,73506.3,-0.73,-0.89,-0.89,0,*50
1506153992.09,5772,14.06,73500.8,-0.73,-0.85,-0.85,0,*53
1506153993.34,5773,14.06,73498.0,-0.75,-0.89,-0.85,0,*58
1506153994.59,5774,14.06,73494.0,-0.75,-0.89,-0.89,0,*53
1506153995.83,5775,14.06,73490.5,-0.75,-0.85,-0.85,0,*52
1506153997.08,5776,14.06,73494.5,-0.75,-0.85,-0.89,0,*5D
1506153998.33,5777,14.06,73494.3,-0.75,-0.89,-0.89,0,*50
1506153999.58,5778,14.06,73490.3,-0.75,-0.89,-0.85,0,*53
1506154000.83,5779,14.06,73480.0,-0.75,-0.89,-0.89,0,*5E
1506154002.05,5780,14.06,73476.3,-0.73,-0.97,-0.89,0,*51
1506154003.27,5781,14.06,73488.3,-0.73,-0.97,-0.89,0,*50
1506154004.49,5782,14.06,73504.8,-0.73,-0.97,-0.89,0,*53
1506154005.66,5783,14.06,73502.0,-0.73,-0.69,-0.73,0,*56
1506154006.87,5784,14.06,73486.0,-0.71,-0.41,-0.45,0,*5C
1506154008.04,5785,14.06,73490.5,-0.73,-0.77,-0.77,0,*5B
1506154009.28,5786,14.06,73498.3,-0.71,-0.93,-0.97,0,*5E
1506154010.51,5787,14.06,73498.0,-0.73,-1.13,-1.13,0,*59
1506154011.73,5788,14.06,73492.0,-0.73,-0.97,-0.89,0,*59
1506154012.97,5789,14.06,73494.5,-0.71,-0.93,-0.93,0,*55
1506154014.16,5790,14.06,73490.3,-0.73,-0.69,-0.85,0,*5D
1506154015.34,5791,14.06,73492.5,-0.73,-0.77,-0.77,0,*5E
1506154016.57,5792,14.06,73494.8,-0.73,-1.01,-1.09,0,*55
1506154017.75,5793,14.06,73492.0,-0.73,-1.25,-1.25,0,*5C
1506154018.95,5794,14.06,73492.5,-0.73,-1.35,-1.33,0,*5D
1506154020.18,5795,14.06,73496.0,-0.73,-1.47,-1.43,0,*5E
1506154021.39,5796,14.06,73514.3,-0.73,-1.43,-1.33,0,*5E
1506154022.57,5797,14.06,73508.0,-0.73,-1.33,-1.33,0,*58
1506154023.79,5798,14.06,73496.0,-0.73,-1.09,-0.97,0,*61
1506154025.01,5799,14.06,73488.8,-0.73,-1.01,-0.97,0,*68
1506154026.2,5800,14.06,73494.8,-0.73,-1.21,-1.21,0,*59
1506154027.38,5801,14.06,73490.8,-0.73,-1.33,-1.25,0,*5F
1506154028.57,5802,14.06,73488.3,-0.73,-1.21,-1.21,0,*5B
1506154029.78,5803,14.06,73488.3,-0.75,-1.25,-1.25,0,*5C
1506154030.99,5804,14.06,73498.8,-0.75,-1.25,-1.21,0,*5F
1506154032.19,5805,14.06,73494.5,-0.75,-0.57,-0.57,0,*5A
1506154033.44,5806,14.06,73494.3,-0.75,-0.85,-0.85,0,*59
1506154034.69,5807,14.06,73500.0,-0.75,-1.01,-0.97,0,*66
1506154035.91,5808,14.06,73498.5,-0.73,-0.97,-0.89,0,*5E
1506154037.11,5809,14.06,73498.5,-0.71,-0.81,-0.81,0,*52
1506154038.29,5810,14.06,73494.5,-0.73,-0.77,-0.77,0,*58
1506154039.47,5811,14.06,73490.8,-0.73,-0.73,-0.69,0,*52
1506154040.68,5812,14.06,73494.5,-0.73,-0.89,-0.89,0,*5A
1506154041.94,5813,14.06,73502.8,-0.71,-1.05,-0.97,0,*63
1506154043.16,5814,14.06,73502.3,-0.73,-1.09,-1.01,0,*54
1506154044.41,5815,14.06,73502.3,-0.71,-0.93,-0.85,0,*58
1506154045.65,5816,14.06,73500.8,-0.71,-0.97,-0.93,0,*58
1506154046.85,5817,14.06,73494.8,-0.71,-0.81,-0.81,0,*5D
1506154048.07,5818,14.06,73494.5,-0.73,-0.85,-0.89,0,*5C
1506154049.28,5819,14.06,73492.5,-0.71,-0.73,-0.73,0,*53
1506154050.46,5820,14.06,73490.5,-0.73,-0.73,-0.77,0,*5F
1506154051.7,5821,14.06,73494.3,-0.71,-0.97,-0.97,0,*58
1506154052.95,5822,14.06,73490.5,-0.71,-1.09,-0.97,0,*6D
1506154054.17,5823,14.06,73484.3,-0.73,-0.85,-0.85,0,*58
1506154055.39,5824,14.06,73494.3,-0.71,-0.85,-0.81,0,*59
1506154056.63,5825,14.06,73498.0,-0.71,-0.93,-0.97,0,*58
1506154057.88,5826,14.06,73502.3,-0.71,-0.97,-0.93,0,*5B
1506154059.12,5827,14.06,73494.5,-0.71,-0.97,-0.97,0,*5E
1506154060.36,5828,14.06,73492.3,-0.71,-0.93,-0.93,0,*51
1506154061.61,5829,14.06,73498.8,-0.71,-0.97,-0.97,0,*50
1506154062.87,5830,14.06,73496.5,-0.71,-1.09,-1.05,0,*54
1506154064.08,5831,14.06,73500.8,-0.71,-1.21,-1.17,0,*5C
1506154065.27,5832,14.06,73500.5,-0.73,-1.21,-1.21,0,*58
1506154066.53,5833,14.06,73502.5,-0.71,-1.05,-1.05,0,*5B
1506154067.75,5834,14.06,73498.3,-0.73,-0.97,-0.97,0,*5E
1506154069.0,5835,14.06,73494.5,-0.71,-0.97,-0.97,0,*5D
1506154070.22,5836,14.06,73492.5,-0.71,-0.81,-0.85,0,*5A
1506154071.47,5837,14.06,73480.8,-0.71,-0.97,-0.97,0,*5F
1506154072.7,5838,14.06,73488.5,-0.71,-1.21,-1.09,0,*5A
1506154073.91,5839,14.06,73494.5,-0.71,-1.33,-1.33,0,*51
1506154075.17,5840,14.06,73480.5,-0.71,-1.39,-1.43,0,*52
1506154076.41,5841,14.06,73480.8,-0.73,-1.47,-1.47,0,*5C
1506154077.57,5842,14.06,73486.8,-0.73,-0.61,-0.45,0,*59
1506154078.79,5843,14.06,73482.0,-0.73,-0.27,-0.27,0,*5E
1506154080.03,5844,14.06,73492.3,-0.71,-0.93,-0.93,0,*5B
1506154081.27,5845,14.06,73480.0,-0.71,-1.33,-1.39,0,*50
1506154082.53,5846,14.06,73492.3,-0.71,-1.47,-1.47,0,*59
1506154083.71,5847,14.06,73490.5,-0.73,-1.51,-1.51,0,*5A
1506154084.94,5848,14.06,73490.8,-0.71,-1.47,-1.55,0,*54
1506154086.12,5849,14.06,73498.3,-0.73,-1.51,-1.51,0,*54
1506154087.32,5850,14.06,73502.5,-0.73,-1.35,-1.33,0,*5A
1506154088.52,5851,14.06,73502.5,-0.73,-1.35,-1.33,0,*5B
1506154089.76,5852,14.06,73500.0,-0.75,-1.21,-1.13,0,*59
1506154090.96,5853,14.06,73502.8,-0.75,-1.25,-1.25,0,*59
1506154092.22,5854,14.06,73502.5,-0.75,-1.01,-1.09,0,*56
1506154093.48,5855,14.06,73504.0,-0.75,-1.01,-0.97,0,*61
1506154094.74,5856,14.06,73504.0,-0.75,-1.01,-1.01,0,*5C
1506154095.99,5857,14.06,73508.8,-0.75,-1.01,-1.01,0,*5D
1506154097.24,5858,14.06,73506.8,-0.75,-0.89,-0.89,0,*52
1506154098.49,5859,14.06,73508.3,-0.75,-0.89,-0.97,0,*5C
1506154099.74,5860,14.06,73504.3,-0.75,-0.97,-0.97,0,*59
1506154100.99,5861,14.06,73504.8,-0.75,-0.89,-0.89,0,*58
1506154102.21,5862,14.06,73506.8,-0.73,-0.85,-0.85,0,*5D
1506154103.42,5863,14.06,73510.0,-0.73,-0.89,-0.89,0,*5C
1506154104.64,5864,14.06,73506.5,-0.73,-0.97,-0.89,0,*54
1506154105.86,5865,14.06,73506.8,-0.73,-0.97,-0.97,0,*5A
1506154107.08,5866,14.06,73506.5,-0.73,-0.89,-0.85,0,*55
1506154108.32,5867,14.06,73508.5,-0.71,-0.93,-0.85,0,*5D
1506154109.54,5868,14.06,73510.3,-0.73,-0.97,-0.97,0,*57
1506154110.75,5869,14.06,73504.3,-0.71,-0.81,-0.69,0,*52
1506154111.95,5870,14.06,73504.8,-0.71,-0.73,-0.73,0,*5C
1506154113.15,5871,14.06,73510.3,-0.71,-0.81,-0.81,0,*5D
1506154114.36,5872,14.06,73504.3,-0.71,-0.81,-0.81,0,*5E